Location: Waldport
(44.4270°N, 124.0680°W)
Time: 15:31:56
(UTC-07:00)

Daily predictions for brighter satellites

Satellite Brightness Start Highest point End
(mag) Time Altitude Azimuth Time Altitude Azimuth Time Altitude Azimuth
Cosmos 2333 Rocket 2.9 20:29:20 10° SSE 20:34:18 33° ESE 20:39:17 10° NE
Cosmos 2221 3.0 20:31:17 10° SSW 20:35:30 65° W 20:39:46 10° N
ERS-2 2.1 20:32:09 10° SSE 20:35:47 66° ENE 20:39:26 10° N
Cosmos 1892 3.1 20:34:32 10° N 20:38:18 44° ENE 20:42:01 10° SSE
COSMOS 2428 2.8 20:33:45 10° S 20:39:22 61° ESE 20:45:01 10° NNE
NOSS 2-1 (E) 3.3 20:36:12 10° SSW 20:39:44 52° ESE 20:43:41 10° NE
Cosmos 1844 Rocket 2.7 20:34:52 10° NNW 20:40:35 84° ENE 20:46:15 10° SSE
Cosmos 2333 4.2 20:36:08 10° SSW 20:41:43 66° ESE 20:47:17 10° NNE
Cosmos 44 4.0 20:38:19 10° SW 20:42:44 57° NW 20:47:27 10° NNE
Cosmos 1844 3.8 20:38:42 10° NNW 20:44:24 72° ENE 20:50:08 10° SSE
Cosmos 1805 Rocket 3.8 20:43:38 10° NNW 20:47:59 74° W 20:52:18 10° S
Genesis I 3.9 20:47:54 10° NNW 20:51:50 43° NE 20:55:26 12° ESE
H-2A R/B 3.7 20:48:50 10° E 20:52:00 17° ENE 20:55:07 10° NNE
YAOGAN 6 2.5 20:48:43 10° SSE 20:52:17 70° ENE 20:55:56 10° N
Cosmos 2219 Rocket 2.3 20:46:59 10° S 20:52:29 54° ESE 20:57:58 10° NE
NOSS 3-3 (A) 4.1 20:47:00 10° SSW 20:52:50 54° ESE 20:59:12 10° NE
NOSS 3-3 (C) 4.1 20:47:08 10° SSW 20:52:56 53° ESE 20:59:19 10° NE
Cosmos 2237 Rocket 3.1 20:48:42 10° SSE 20:53:20 27° ESE 20:57:59 10° NE
Cosmos 1437 4.2 20:50:27 10° SSW 20:53:29 41° WNW 20:56:33 10° N
Cosmos 1328 Rocket 4.0 20:51:33 10° SSE 20:55:41 41° E 20:59:53 10° NNE
Resurs 01 Rocket 1.6 20:55:20 10° SSE 20:59:45 71° ENE 21:04:11 10° N
Cosmos 2278 Rocket 2.7 20:55:13 10° NNW 21:00:39 44° ENE 21:05:28 13° SE
Cosmos 2154 Rocket 4.0 20:55:20 10° S 21:01:36 83° E 21:07:52 10° N
Cosmos 2251 Rocket 3.9 20:58:54 10° NNW 21:04:16 68° WSW 21:09:34 10° S
Cosmos 1470 Rocket 4.0 21:01:37 10° N 21:05:51 44° ENE 21:09:51 11° SSE
Cosmos 44 Rocket 4.2 21:01:42 10° SW 21:06:22 53° NW 21:11:13 10° NNE
Cosmos 1340 3.2 21:03:50 10° SSW 21:07:34 62° WNW 21:11:22 10° N
NOAA 11 4.3 21:02:59 10° SSE 21:08:22 59° ENE 21:13:47 10° N
ATLAS CENTAUR R/B 1.4 21:05:02 10° S 21:08:29 42° ESE 21:12:06 10° NE
Envisat 4.0 21:04:25 10° S 21:09:19 48° W 21:14:15 10° NNW
Cosmos 1825 2.8 21:15:43 10° N 21:19:18 38° ENE 21:21:24 20° SE
Aureole 2 4.2 21:17:50 10° S 21:20:46 49° ESE 21:23:39 10° NNE
Cosmos 2098 Rocket 3.9 21:20:02 16° SE 21:22:48 29° E 21:26:13 10° NNE
Cosmos 2341 Rocket 4.0 21:17:13 10° S 21:23:36 83° E 21:29:57 10° N
OE (NEXTSAT) 4.4 21:20:03 10° WSW 21:23:37 87° NNW 21:26:27 15° ENE
USA 186 3.3 21:22:02 10° SSW 21:23:53 23° W 21:25:48 10° NW
Cosmos 962 Rocket 4.5 21:22:13 10° S 21:28:20 87° W 21:34:33 10° N
Cosmos 2218 Rocket 4.2 21:23:42 10° SSE 21:29:49 52° E 21:36:00 10° NNE
Cosmos 1939 Rocket 4.0 21:28:05 10° S 21:31:45 41° W 21:35:29 10° NNW
Thor Agena Rocket 4.5 21:28:19 10° N 21:33:23 52° WNW 21:38:27 10° SW
Cosmos 1933 Rocket 3.5 21:30:11 10° N 21:34:36 75° E 21:37:46 18° SSE
NOSS 0 Rocket 3.8 21:30:08 10° SSW 21:36:16 73° ESE 21:42:28 10° NNE
Cosmos 1869 3.5 21:38:19 23° SSE 21:40:29 49° E 21:44:23 10° NNE
Cosmos 2366 rocket 4.0 21:36:29 10° S 21:42:33 59° E 21:48:43 10° NNE
SL-16 R/B 3.0 21:41:17 25° SE 21:42:48 28° ESE 21:47:32 10° NE
Cosmos 1151 Rocket 2.9 21:39:21 10° S 21:43:36 90° WNW 21:47:54 10° N
Terra 3.8 21:43:59 13° ENE 21:45:06 14° ENE 21:47:34 10° NNE
Meteor 2-3 Rocket 4.3 21:40:01 10° NNW 21:45:28 56° W 21:50:57 10° S
GEOS 3 Rocket 4.2 21:42:41 10° NE 21:47:31 34° ESE 21:52:15 10° S
ARGOS 3.1 21:48:41 25° SSE 21:51:51 70° ENE 21:57:11 10° N
SL-8 Rocket 4.0 21:45:51 10° S 21:52:10 90° ENE 21:58:29 10° N
Spot 2 Rocket 4.3 21:47:19 10° S 21:52:15 49° W 21:57:12 10° NNW
MetOp-B 4.1 21:53:32 28° SSE 21:56:22 68° ENE 22:01:42 10° N
Lacrosse 5 3.9 21:52:53 10° NW 21:56:46 21° N 22:00:39 10° ENE
Cosmos 1869 Rocket 4.1 21:52:37 10° N 21:56:47 40° ENE 21:57:35 36° ESE
Helios 1B rocket 4.2 21:54:15 10° NE 21:56:07 18° ENE 21:56:07 18° ENE
Cosmos 1339 Rocket 4.4 21:52:04 10° N 21:58:10 73° E 22:01:50 26° SSE
SPOT 5 3.5 21:58:33 31° E 21:59:31 34° ENE 22:03:32 10° N
ATLAS 2AS CENTAUR R/B 3.5 21:57:30 10° NW 22:05:06 53° WSW 22:10:10 20° S
Cosmos 1408 3.7 22:05:12 10° NNW 22:08:40 41° W 22:10:34 22° SSW
Cosmos 1441 Rocket 3.9 22:09:54 37° ENE 22:09:54 37° ENE 22:12:43 10° NNE
Cosmos 1980 3.9 22:03:42 10° SSW 22:09:22 72° WNW 22:15:05 10° NNE
Cosmos 2344 4.0 22:08:24 27° SSE 22:11:22 36° ESE 22:18:36 10° NE
DMSP B5D2-2 4.5 22:07:06 10° NNE 22:12:03 40° E 22:12:36 39° ESE
Cosmos 2297 3.8 22:06:27 10° NNW 22:12:06 63° ENE 22:14:04 40° SE
Meteor 2-10 Rocket 3.7 22:08:14 19° S 22:12:24 79° E 22:18:15 10° NNE
Helios 1A 3.1 22:12:28 50° ESE 22:13:00 54° ENE 22:17:07 10° N
Cosmos 2228 Rocket 4.3 22:09:53 10° SSW 22:14:02 41° WNW 22:18:13 10° N
Cosmos 2333 Rocket 3.5 22:13:08 10° SW 22:18:27 40° WNW 22:23:47 10° NNE
Cosmos 2369 Rocket 3.9 22:16:04 10° N 22:20:09 20° NE 22:22:03 17° ENE
BREEZE M DEB (TANK) 4.5 22:00:49 10° WSW 22:20:58 76° NNW 22:25:52 11° ENE
USA 81 3.9 22:16:49 10° N 22:22:08 87° E 22:24:02 41° S
SPOT 1/Viking Rocket 3.7 22:21:26 45° ESE 22:22:37 56° ENE 22:27:44 10° N
Cosmos 1862 3.1 22:21:16 10° N 22:25:20 79° E 22:25:29 78° ESE
SL-8 R/B 3.5 22:22:28 10° WSW 22:27:16 83° SSE 22:28:58 41° ENE
Cosmos 407 Rocket 3.4 22:25:09 10° NNW 22:30:18 80° WSW 22:31:35 51° S
H-2A R/B 2.1 22:29:05 39° S 22:30:54 69° WSW 22:35:53 10° NNW
ERS-1 Rocket 3.0 22:30:13 44° S 22:31:49 73° WSW 22:36:51 10° NNW
Cosmos 614 Rocket 4.0 22:28:48 10° NNW 22:33:59 60° ENE 22:34:42 54° E
Cosmos 1437 Rocket 4.3 22:30:42 10° NNE 22:33:02 25° NE 22:33:02 25° NE
BREEZE-M DEB (TANK) 4.3 22:33:18 10° WNW 22:34:37 22° NNW 22:34:37 22° NNW
NOSS 3-4 (A) 3.8 22:28:38 10° NW 22:35:41 89° SW 22:38:28 43° SE
NOSS 3-4 (C) 3.8 22:28:44 10° NW 22:35:47 89° WSW 22:38:33 43° SE
Resurs 01 Rocket 4.5 22:35:01 10° WSW 22:36:43 12° W 22:38:24 10° WNW
Cosmos 2219 Rocket 4.3 22:32:00 10° WSW 22:36:45 27° NW 22:41:30 10° N
Cosmos 2237 Rocket 3.1 22:31:41 10° SW 22:37:06 47° WNW 22:42:33 10° NNE
Cosmos 405 Rocket 2.9 22:38:21 65° N 22:38:21 65° N 22:41:45 10° N
Cosmos 1934 Rocket 4.4 22:39:15 40° E 22:39:24 40° E 22:45:00 10° NNE
IGS 5A 4.2 22:41:25 41° NE 22:41:25 41° NE 22:44:48 10° N
CZ-2C R/B 4.5 22:37:44 10° NE 22:39:41 16° ENE 22:39:41 16° ENE
SL-19 R/B 4.2 22:40:36 56° SE 22:41:43 74° ENE 22:47:19 10° NNW
SL-08 RB Rocket 4.4 22:40:59 39° SW 22:42:08 48° W 22:46:29 10° NNW
Cosmos 2278 Rocket 3.7 22:39:40 10° NW 22:44:32 30° WSW 22:47:20 20° SSW
USA 267 3.2 22:38:52 10° NE 22:45:20 61° SE 22:51:47 10° SW
ATLAS CENTAUR R/B 3.8 22:44:45 10° W 22:47:39 21° NW 22:50:40 10° N
Cosmos 676 Rocket 3.8 22:44:06 10° NNW 22:49:23 87° WSW 22:49:56 72° S
ATLAS 5 CENTAUR R/B 3.7 22:47:02 10° NNW 22:52:03 29° NE 22:54:11 24° ENE
Cosmos 1000 Rocket 4.4 22:51:07 10° N 22:57:22 90° WSW 22:58:40 59° S
SL-24 R/B 4.5 22:59:31 76° SE 22:59:53 82° E 23:05:02 10° N
Cosmos 2056 Rocket 4.5 22:56:02 10° SW 23:01:14 48° WNW 23:06:28 10° N
Cosmos 1452 Rocket 3.5 23:02:32 69° ENE 23:02:32 69° ENE 23:07:20 10° NNE
Cosmos 1821 Rocket 3.9 23:02:17 58° S 23:03:39 85° E 23:09:59 10° N
Landsat 7 3.8 23:04:34 77° W 23:04:34 77° W 23:09:15 10° NNW
Cosmos 1023 Rocket 4.4 22:59:58 10° NNW 23:05:08 75° WSW 23:05:13 75° WSW
Cosmos 1933 4.2 23:08:55 48° NNW 23:08:55 48° NNW 23:12:05 10° N
Cosmos 2123 Rocket 3.8 23:12:38 10° N 23:18:59 78° E 23:19:23 75° ESE
USA 234 3.6 23:17:45 43° E 23:19:43 59° NNE 23:26:07 10° NW
Cosmos 1850 Rocket 4.2 23:14:39 10° NNW 23:19:18 63° NNE 23:19:18 63° NNE
Terra 2.1 23:22:51 64° NW 23:22:51 64° NW 23:27:00 10° NNW
GEOS 3 Rocket 4.5 23:20:29 10° NNE 23:25:39 50° NW 23:30:45 10° WSW
SL-16 R/B 3.1 23:23:01 20° WSW 23:26:38 47° WNW 23:32:07 10° NNE
Cosmos 1140 Rocket 4.1 23:22:02 10° NNW 23:26:48 48° W 23:26:48 48° W
Cosmos 1741 Rocket 4.2 23:21:43 10° NNW 23:26:31 68° NNE 23:26:31 68° NNE
SeaSat 1 4.3 23:31:59 20° NE 23:32:19 20° NE 23:35:51 10° N
Helios 1B rocket 3.9 23:29:01 10° N 23:32:29 34° WNW 23:32:29 34° WNW
CZ-2C R/B 3.4 23:36:31 55° N 23:36:31 55° N 23:40:16 10° NNW
Cosmos 1943 Rocket 2.8 23:31:29 10° NNW 23:36:23 45° NE 23:36:23 45° NE
SPOT 5 4.4 23:37:47 26° W 23:37:47 26° W 23:41:24 10° NW
Lacrosse 5 2.7 23:35:52 10° NW 23:40:20 46° NNE 23:40:20 46° NNE
CZ-4C R/B 2.8 23:43:31 48° NE 23:43:31 48° NE 23:47:53 10° NE
Cosmos 1241 Rocket 4.4 23:35:53 10° NW 23:42:02 73° WSW 23:42:02 73° WSW
Meteor 1-14 Rocket 4.4 23:38:08 10° NNW 23:43:11 67° WNW 23:43:11 67° WNW
Cosmos 1733 Rocket 4.5 23:42:41 10° NNW 23:45:38 35° NW 23:45:38 35° NW
Cosmos 1603 4.0 23:54:21 61° N 23:54:21 61° N 23:58:59 10° NNE
